Netzbetreibername:;Stadtwerke Gotha NETZ GmbH;;;;;
Netz- oder Umspannebene:;Niederspannung;;;;;
Lastgangtyp:;Summe aller Einspeisungen;;;;;
gesetzliche Grundlage:;� 17 Abs. 2 Nr. 6 StromNZV;;;;;
Einheit:;kW;;;;;
Betrachtungszeitraum:;01.01.2017;bis;31.12.2017;;;
;;;;;;
;;;;;;
;;;;;;
;;;;;;
Datum;Wert ;;;;;
01.01.2017 00:15;9;;;;;
01.01.2017 00:30;9;;;;;
01.01.2017 00:45;9;;;;;
01.01.2017 01:00;9;;;;;
01.01.2017 01:15;9;;;;;
01.01.2017 01:30;10;;;;;
01.01.2017 01:45;8;;;;;
01.01.2017 02:00;5;;;;;
01.01.2017 02:15;5;;;;;
01.01.2017 02:30;5;;;;;
01.01.2017 02:45;5;;;;;
01.01.2017 03:00;5;;;;;
01.01.2017 03:15;9;;;;;
01.01.2017 03:30;10;;;;;
01.01.2017 03:45;10;;;;;
01.01.2017 04:00;10;;;;;
01.01.2017 04:15;10;;;;;
01.01.2017 04:30;9;;;;;
01.01.2017 04:45;10;;;;;
01.01.2017 05:00;10;;;;;
01.01.2017 05:15;10;;;;;
01.01.2017 05:30;10;;;;;
01.01.2017 05:45;9;;;;;
01.01.2017 06:00;9;;;;;
01.01.2017 06:15;10;;;;;
01.01.2017 06:30;10;;;;;
01.01.2017 06:45;10;;;;;
01.01.2017 07:00;10;;;;;
01.01.2017 07:15;10;;;;;
01.01.2017 07:30;10;;;;;
01.01.2017 07:45;10;;;;;
01.01.2017 08:00;19;;;;;
01.01.2017 08:15;36;;;;;
01.01.2017 08:30;38;;;;;
01.01.2017 08:45;51;;;;;
01.01.2017 09:00;70;;;;;
01.01.2017 09:15;104;;;;;
01.01.2017 09:30;139;;;;;
01.01.2017 09:45;186;;;;;
01.01.2017 10:00;234;;;;;
01.01.2017 10:15;275;;;;;
01.01.2017 10:30;335;;;;;
01.01.2017 10:45;443;;;;;
01.01.2017 11:00;594;;;;;
01.01.2017 11:15;734;;;;;
01.01.2017 11:30;833;;;;;
01.01.2017 11:45;889;;;;;
01.01.2017 12:00;940;;;;;
01.01.2017 12:15;963;;;;;
01.01.2017 12:30;969;;;;;
01.01.2017 12:45;975;;;;;
01.01.2017 13:00;947;;;;;
01.01.2017 13:15;897;;;;;
01.01.2017 13:30;827;;;;;
01.01.2017 13:45;724;;;;;
01.01.2017 14:00;590;;;;;
01.01.2017 14:15;437;;;;;
01.01.2017 14:30;324;;;;;
01.01.2017 14:45;270;;;;;
01.01.2017 15:00;225;;;;;
01.01.2017 15:15;172;;;;;
01.01.2017 15:30;113;;;;;
01.01.2017 15:45;84;;;;;
01.01.2017 16:00;65;;;;;
01.01.2017 16:15;42;;;;;
01.01.2017 16:30;30;;;;;
01.01.2017 16:45;21;;;;;
01.01.2017 17:00;9;;;;;
01.01.2017 17:15;9;;;;;
01.01.2017 17:30;9;;;;;
01.01.2017 17:45;7;;;;;
01.01.2017 18:00;7;;;;;
01.01.2017 18:15;7;;;;;
01.01.2017 18:30;8;;;;;
01.01.2017 18:45;9;;;;;
01.01.2017 19:00;9;;;;;
01.01.2017 19:15;8;;;;;
01.01.2017 19:30;6;;;;;
01.01.2017 19:45;7;;;;;
01.01.2017 20:00;7;;;;;
01.01.2017 20:15;7;;;;;
01.01.2017 20:30;7;;;;;
01.01.2017 20:45;8;;;;;
01.01.2017 21:00;7;;;;;
01.01.2017 21:15;9;;;;;
01.01.2017 21:30;9;;;;;
01.01.2017 21:45;9;;;;;
01.01.2017 22:00;9;;;;;
01.01.2017 22:15;9;;;;;
01.01.2017 22:30;9;;;;;
01.01.2017 22:45;9;;;;;
01.01.2017 23:00;9;;;;;
01.01.2017 23:15;9;;;;;
01.01.2017 23:30;9;;;;;
01.01.2017 23:45;10;;;;;
02.01.2017 00:00;9;;;;;
02.01.2017 00:15;5;;;;;
02.01.2017 00:30;5;;;;;
02.01.2017 00:45;5;;;;;
02.01.2017 01:00;8;;;;;
02.01.2017 01:15;10;;;;;
02.01.2017 01:30;10;;;;;
02.01.2017 01:45;10;;;;;
02.01.2017 02:00;10;;;;;
02.01.2017 02:15;10;;;;;
02.01.2017 02:30;10;;;;;
02.01.2017 02:45;10;;;;;
02.01.2017 03:00;10;;;;;
02.01.2017 03:15;10;;;;;
02.01.2017 03:30;10;;;;;
02.01.2017 03:45;10;;;;;
02.01.2017 04:00;10;;;;;
02.01.2017 04:15;9;;;;;
02.01.2017 04:30;8;;;;;
02.01.2017 04:45;10;;;;;
02.01.2017 05:00;9;;;;;
02.01.2017 05:15;10;;;;;
02.01.2017 05:30;10;;;;;
02.01.2017 05:45;10;;;;;
02.01.2017 06:00;9;;;;;
02.01.2017 06:15;9;;;;;
02.01.2017 06:30;9;;;;;
02.01.2017 06:45;9;;;;;
02.01.2017 07:00;9;;;;;
02.01.2017 07:15;9;;;;;
02.01.2017 07:30;9;;;;;
02.01.2017 07:45;9;;;;;
02.01.2017 08:00;9;;;;;
02.01.2017 08:15;6;;;;;
02.01.2017 08:30;7;;;;;
02.01.2017 08:45;8;;;;;
02.01.2017 09:00;7;;;;;
02.01.2017 09:15;8;;;;;
02.01.2017 09:30;14;;;;;
02.01.2017 09:45;14;;;;;
02.01.2017 10:00;13;;;;;
02.01.2017 10:15;18;;;;;
02.01.2017 10:30;17;;;;;
02.01.2017 10:45;14;;;;;
02.01.2017 11:00;15;;;;;
02.01.2017 11:15;44;;;;;
02.01.2017 11:30;64;;;;;
02.01.2017 11:45;81;;;;;
02.01.2017 12:00;94;;;;;
02.01.2017 12:15;104;;;;;
02.01.2017 12:30;149;;;;;
02.01.2017 12:45;302;;;;;
02.01.2017 13:00;717;;;;;
02.01.2017 13:15;752;;;;;
02.01.2017 13:30;317;;;;;
02.01.2017 13:45;194;;;;;
02.01.2017 14:00;140;;;;;
02.01.2017 14:15;127;;;;;
02.01.2017 14:30;115;;;;;
02.01.2017 14:45;66;;;;;
02.01.2017 15:00;55;;;;;
02.01.2017 15:15;37;;;;;
02.01.2017 15:30;11;;;;;
02.01.2017 15:45;11;;;;;
02.01.2017 16:00;13;;;;;
02.01.2017 16:15;6;;;;;
02.01.2017 16:30;5;;;;;
02.01.2017 16:45;6;;;;;
02.01.2017 17:00;7;;;;;
02.01.2017 17:15;7;;;;;
02.01.2017 17:30;6;;;;;
02.01.2017 17:45;7;;;;;
02.01.2017 18:00;8;;;;;
02.01.2017 18:15;8;;;;;
02.01.2017 18:30;6;;;;;
02.01.2017 18:45;8;;;;;
02.01.2017 19:00;9;;;;;
02.01.2017 19:15;8;;;;;
02.01.2017 19:30;8;;;;;
02.01.2017 19:45;9;;;;;
02.01.2017 20:00;8;;;;;
02.01.2017 20:15;9;;;;;
02.01.2017 20:30;9;;;;;
02.01.2017 20:45;9;;;;;
02.01.2017 21:00;7;;;;;
02.01.2017 21:15;7;;;;;
02.01.2017 21:30;8;;;;;
02.01.2017 21:45;7;;;;;
02.01.2017 22:00;5;;;;;
02.01.2017 22:15;5;;;;;
02.01.2017 22:30;5;;;;;
02.01.2017 22:45;7;;;;;
02.01.2017 23:00;9;;;;;
02.01.2017 23:15;9;;;;;
02.01.2017 23:30;9;;;;;
02.01.2017 23:45;9;;;;;
03.01.2017 00:00;9;;;;;
03.01.2017 00:15;10;;;;;
03.01.2017 00:30;6;;;;;
03.01.2017 00:45;5;;;;;
03.01.2017 01:00;5;;;;;
03.01.2017 01:15;5;;;;;
03.01.2017 01:30;7;;;;;
03.01.2017 01:45;10;;;;;
03.01.2017 02:00;10;;;;;
03.01.2017 02:15;10;;;;;
03.01.2017 02:30;9;;;;;
03.01.2017 02:45;10;;;;;
03.01.2017 03:00;10;;;;;
03.01.2017 03:15;10;;;;;
03.01.2017 03:30;10;;;;;
03.01.2017 03:45;7;;;;;
03.01.2017 04:00;5;;;;;
03.01.2017 04:15;5;;;;;
03.01.2017 04:30;8;;;;;
03.01.2017 04:45;10;;;;;
03.01.2017 05:00;10;;;;;
03.01.2017 05:15;10;;;;;
03.01.2017 05:30;10;;;;;
03.01.2017 05:45;10;;;;;
03.01.2017 06:00;10;;;;;
03.01.2017 06:15;9;;;;;
03.01.2017 06:30;9;;;;;
03.01.2017 06:45;9;;;;;
03.01.2017 07:00;9;;;;;
03.01.2017 07:15;10;;;;;
03.01.2017 07:30;10;;;;;
03.01.2017 07:45;9;;;;;
03.01.2017 08:00;7;;;;;
03.01.2017 08:15;7;;;;;
03.01.2017 08:30;8;;;;;
03.01.2017 08:45;20;;;;;
03.01.2017 09:00;49;;;;;
03.01.2017 09:15;153;;;;;
03.01.2017 09:30;196;;;;;
03.01.2017 09:45;225;;;;;
03.01.2017 10:00;247;;;;;
03.01.2017 10:15;201;;;;;
03.01.2017 10:30;203;;;;;
03.01.2017 10:45;205;;;;;
03.01.2017 11:00;174;;;;;
03.01.2017 11:15;177;;;;;
03.01.2017 11:30;144;;;;;
03.01.2017 11:45;124;;;;;
03.01.2017 12:00;175;;;;;
03.01.2017 12:15;233;;;;;
03.01.2017 12:30;122;;;;;
03.01.2017 12:45;150;;;;;
03.01.2017 13:00;177;;;;;
03.01.2017 13:15;234;;;;;
03.01.2017 13:30;200;;;;;
03.01.2017 13:45;115;;;;;
03.01.2017 14:00;79;;;;;
03.01.2017 14:15;65;;;;;
03.01.2017 14:30;71;;;;;
03.01.2017 14:45;44;;;;;
03.01.2017 15:00;66;;;;;
03.01.2017 15:15;104;;;;;
03.01.2017 15:30;89;;;;;
03.01.2017 15:45;71;;;;;
03.01.2017 16:00;55;;;;;
03.01.2017 16:15;27;;;;;
03.01.2017 16:30;8;;;;;
03.01.2017 16:45;8;;;;;
03.01.2017 17:00;8;;;;;
03.01.2017 17:15;8;;;;;
03.01.2017 17:30;8;;;;;
03.01.2017 17:45;7;;;;;
03.01.2017 18:00;6;;;;;
03.01.2017 18:15;7;;;;;
03.01.2017 18:30;8;;;;;
03.01.2017 18:45;7;;;;;
03.01.2017 19:00;7;;;;;
03.01.2017 19:15;5;;;;;
03.01.2017 19:30;6;;;;;
03.01.2017 19:45;7;;;;;
03.01.2017 20:00;8;;;;;
03.01.2017 20:15;8;;;;;
03.01.2017 20:30;8;;;;;
03.01.2017 20:45;7;;;;;
03.01.2017 21:00;9;;;;;
03.01.2017 21:15;8;;;;;
03.01.2017 21:30;8;;;;;
03.01.2017 21:45;8;;;;;
03.01.2017 22:00;9;;;;;
03.01.2017 22:15;9;;;;;
03.01.2017 22:30;9;;;;;
03.01.2017 22:45;9;;;;;
03.01.2017 23:00;5;;;;;
03.01.2017 23:15;5;;;;;
03.01.2017 23:30;5;;;;;
03.01.2017 23:45;5;;;;;
04.01.2017 00:00;5;;;;;
04.01.2017 00:15;9;;;;;
04.01.2017 00:30;10;;;;;
04.01.2017 00:45;9;;;;;
04.01.2017 01:00;9;;;;;
04.01.2017 01:15;9;;;;;
04.01.2017 01:30;9;;;;;
04.01.2017 01:45;9;;;;;
04.01.2017 02:00;9;;;;;
04.01.2017 02:15;10;;;;;
04.01.2017 02:30;8;;;;;
04.01.2017 02:45;5;;;;;
04.01.2017 03:00;5;;;;;
04.01.2017 03:15;5;;;;;
04.01.2017 03:30;7;;;;;
04.01.2017 03:45;9;;;;;
04.01.2017 04:00;10;;;;;
04.01.2017 04:15;10;;;;;
04.01.2017 04:30;9;;;;;
04.01.2017 04:45;10;;;;;
04.01.2017 05:00;10;;;;;
04.01.2017 05:15;10;;;;;
04.01.2017 05:30;10;;;;;
04.01.2017 05:45;10;;;;;
04.01.2017 06:00;10;;;;;
04.01.2017 06:15;9;;;;;
04.01.2017 06:30;9;;;;;
04.01.2017 06:45;9;;;;;
04.01.2017 07:00;9;;;;;
04.01.2017 07:15;9;;;;;
04.01.2017 07:30;10;;;;;
04.01.2017 07:45;10;;;;;
04.01.2017 08:00;7;;;;;
04.01.2017 08:15;8;;;;;
04.01.2017 08:30;6;;;;;
04.01.2017 08:45;8;;;;;
04.01.2017 09:00;15;;;;;
04.01.2017 09:15;5;;;;;
04.01.2017 09:30;33;;;;;
04.01.2017 09:45;33;;;;;
04.01.2017 10:00;29;;;;;
04.01.2017 10:15;140;;;;;
04.01.2017 10:30;305;;;;;
04.01.2017 10:45;431;;;;;
04.01.2017 11:00;128;;;;;
04.01.2017 11:15;252;;;;;
04.01.2017 11:30;299;;;;;
04.01.2017 11:45;92;;;;;
04.01.2017 12:00;623;;;;;
04.01.2017 12:15;427;;;;;
04.01.2017 12:30;216;;;;;
04.01.2017 12:45;241;;;;;
04.01.2017 13:00;194;;;;;
04.01.2017 13:15;100;;;;;
04.01.2017 13:30;83;;;;;
04.01.2017 13:45;146;;;;;
04.01.2017 14:00;372;;;;;
04.01.2017 14:15;196;;;;;
04.01.2017 14:30;330;;;;;
04.01.2017 14:45;99;;;;;
04.01.2017 15:00;151;;;;;
04.01.2017 15:15;81;;;;;
04.01.2017 15:30;13;;;;;
04.01.2017 15:45;16;;;;;
04.01.2017 16:00;35;;;;;
04.01.2017 16:15;13;;;;;
04.01.2017 16:30;12;;;;;
04.01.2017 16:45;9;;;;;
04.01.2017 17:00;8;;;;;
04.01.2017 17:15;8;;;;;
04.01.2017 17:30;8;;;;;
04.01.2017 17:45;8;;;;;
04.01.2017 18:00;8;;;;;
04.01.2017 18:15;7;;;;;
04.01.2017 18:30;8;;;;;
04.01.2017 18:45;8;;;;;
04.01.2017 19:00;7;;;;;
04.01.2017 19:15;8;;;;;
04.01.2017 19:30;6;;;;;
04.01.2017 19:45;6;;;;;
04.01.2017 20:00;8;;;;;
04.01.2017 20:15;9;;;;;
04.01.2017 20:30;7;;;;;
04.01.2017 20:45;5;;;;;
04.01.2017 21:00;5;;;;;
04.01.2017 21:15;5;;;;;
04.01.2017 21:30;5;;;;;
04.01.2017 21:45;5;;;;;
04.01.2017 22:00;5;;;;;
04.01.2017 22:15;5;;;;;
04.01.2017 22:30;8;;;;;
04.01.2017 22:45;9;;;;;
04.01.2017 23:00;9;;;;;
04.01.2017 23:15;8;;;;;
04.01.2017 23:30;9;;;;;
04.01.2017 23:45;10;;;;;
05.01.2017 00:00;7;;;;;
05.01.2017 00:15;5;;;;;
05.01.2017 00:30;5;;;;;
05.01.2017 00:45;5;;;;;
05.01.2017 01:00;6;;;;;
05.01.2017 01:15;10;;;;;
05.01.2017 01:30;10;;;;;
05.01.2017 01:45;10;;;;;
05.01.2017 02:00;10;;;;;
05.01.2017 02:15;10;;;;;
05.01.2017 02:30;10;;;;;
05.01.2017 02:45;10;;;;;
05.01.2017 03:00;10;;;;;
05.01.2017 03:15;10;;;;;
05.01.2017 03:30;7;;;;;
05.01.2017 03:45;5;;;;;
05.01.2017 04:00;5;;;;;
05.01.2017 04:15;5;;;;;
05.01.2017 04:30;8;;;;;
05.01.2017 04:45;10;;;;;
05.01.2017 05:00;10;;;;;
05.01.2017 05:15;10;;;;;
05.01.2017 05:30;10;;;;;
05.01.2017 05:45;10;;;;;
05.01.2017 06:00;10;;;;;
05.01.2017 06:15;10;;;;;
05.01.2017 06:30;9;;;;;
05.01.2017 06:45;9;;;;;
05.01.2017 07:00;9;;;;;
05.01.2017 07:15;10;;;;;
05.01.2017 07:30;10;;;;;
05.01.2017 07:45;10;;;;;
05.01.2017 08:00;7;;;;;
05.01.2017 08:15;8;;;;;
05.01.2017 08:30;7;;;;;
05.01.2017 08:45;12;;;;;
05.01.2017 09:00;23;;;;;
05.01.2017 09:15;70;;;;;
05.01.2017 09:30;59;;;;;
05.01.2017 09:45;140;;;;;
05.01.2017 10:00;149;;;;;
05.01.2017 10:15;271;;;;;
05.01.2017 10:30;150;;;;;
05.01.2017 10:45;177;;;;;
05.01.2017 11:00;217;;;;;
05.01.2017 11:15;165;;;;;
05.01.2017 11:30;111;;;;;
05.01.2017 11:45;213;;;;;
05.01.2017 12:00;340;;;;;
05.01.2017 12:15;191;;;;;
05.01.2017 12:30;192;;;;;
05.01.2017 12:45;238;;;;;
05.01.2017 13:00;358;;;;;
05.01.2017 13:15;165;;;;;
05.01.2017 13:30;66;;;;;
05.01.2017 13:45;136;;;;;
05.01.2017 14:00;152;;;;;
05.01.2017 14:15;101;;;;;
05.01.2017 14:30;156;;;;;
05.01.2017 14:45;192;;;;;
05.01.2017 15:00;142;;;;;
05.01.2017 15:15;96;;;;;
05.01.2017 15:30;47;;;;;
05.01.2017 15:45;26;;;;;
05.01.2017 16:00;24;;;;;
05.01.2017 16:15;7;;;;;
05.01.2017 16:30;8;;;;;
05.01.2017 16:45;8;;;;;
05.01.2017 17:00;8;;;;;
05.01.2017 17:15;8;;;;;
05.01.2017 17:30;7;;;;;
05.01.2017 17:45;8;;;;;
05.01.2017 18:00;8;;;;;
05.01.2017 18:15;9;;;;;
05.01.2017 18:30;9;;;;;
05.01.2017 18:45;8;;;;;
05.01.2017 19:00;8;;;;;
05.01.2017 19:15;9;;;;;
05.01.2017 19:30;9;;;;;
05.01.2017 19:45;9;;;;;
05.01.2017 20:00;8;;;;;
05.01.2017 20:15;9;;;;;
05.01.2017 20:30;9;;;;;
05.01.2017 20:45;8;;;;;
05.01.2017 21:00;8;;;;;
05.01.2017 21:15;8;;;;;
05.01.2017 21:30;8;;;;;
05.01.2017 21:45;8;;;;;
05.01.2017 22:00;9;;;;;
05.01.2017 22:15;9;;;;;
05.01.2017 22:30;9;;;;;
05.01.2017 22:45;8;;;;;
05.01.2017 23:00;9;;;;;
05.01.2017 23:15;9;;;;;
05.01.2017 23:30;9;;;;;
05.01.2017 23:45;9;;;;;
06.01.2017 00:00;9;;;;;
06.01.2017 00:15;9;;;;;
06.01.2017 00:30;10;;;;;
06.01.2017 00:45;10;;;;;
06.01.2017 01:00;10;;;;;
06.01.2017 01:15;10;;;;;
06.01.2017 01:30;10;;;;;
06.01.2017 01:45;10;;;;;
06.01.2017 02:00;10;;;;;
06.01.2017 02:15;10;;;;;
06.01.2017 02:30;6;;;;;
06.01.2017 02:45;10;;;;;
06.01.2017 03:00;9;;;;;
06.01.2017 03:15;10;;;;;
06.01.2017 03:30;10;;;;;
06.01.2017 03:45;9;;;;;
06.01.2017 04:00;9;;;;;
06.01.2017 04:15;10;;;;;
06.01.2017 04:30;9;;;;;
06.01.2017 04:45;9;;;;;
06.01.2017 05:00;10;;;;;
06.01.2017 05:15;10;;;;;
06.01.2017 05:30;9;;;;;
06.01.2017 05:45;9;;;;;
06.01.2017 06:00;9;;;;;
06.01.2017 06:15;9;;;;;
06.01.2017 06:30;9;;;;;
06.01.2017 06:45;9;;;;;
06.01.2017 07:00;10;;;;;
06.01.2017 07:15;9;;;;;
06.01.2017 07:30;9;;;;;
06.01.2017 07:45;10;;;;;
06.01.2017 08:00;7;;;;;
06.01.2017 08:15;7;;;;;
06.01.2017 08:30;7;;;;;
06.01.2017 08:45;19;;;;;
06.01.2017 09:00;34;;;;;
06.01.2017 09:15;57;;;;;
06.01.2017 09:30;78;;;;;
06.01.2017 09:45;103;;;;;
06.01.2017 10:00;131;;;;;
06.01.2017 10:15;146;;;;;
06.01.2017 10:30;197;;;;;
06.01.2017 10:45;270;;;;;
06.01.2017 11:00;411;;;;;
06.01.2017 11:15;603;;;;;
06.01.2017 11:30;817;;;;;
06.01.2017 11:45;969;;;;;
06.01.2017 12:00;1042;;;;;
06.01.2017 12:15;1075;;;;;
06.01.2017 12:30;1089;;;;;
06.01.2017 12:45;1085;;;;;
06.01.2017 13:00;1066;;;;;
06.01.2017 13:15;1031;;;;;
06.01.2017 13:30;982;;;;;
06.01.2017 13:45;906;;;;;
06.01.2017 14:00;786;;;;;
06.01.2017 14:15;609;;;;;
06.01.2017 14:30;415;;;;;
06.01.2017 14:45;286;;;;;
06.01.2017 15:00;228;;;;;
06.01.2017 15:15;134;;;;;
06.01.2017 15:30;51;;;;;
06.01.2017 15:45;59;;;;;
06.01.2017 16:00;63;;;;;
06.01.2017 16:15;27;;;;;
06.01.2017 16:30;13;;;;;
06.01.2017 16:45;9;;;;;
06.01.2017 17:00;9;;;;;
06.01.2017 17:15;9;;;;;
06.01.2017 17:30;9;;;;;
06.01.2017 17:45;9;;;;;
06.01.2017 18:00;9;;;;;
06.01.2017 18:15;6;;;;;
06.01.2017 18:30;7;;;;;
06.01.2017 18:45;8;;;;;
06.01.2017 19:00;9;;;;;
06.01.2017 19:15;8;;;;;
06.01.2017 19:30;7;;;;;
06.01.2017 19:45;8;;;;;
06.01.2017 20:00;8;;;;;
06.01.2017 20:15;9;;;;;
06.01.2017 20:30;7;;;;;
06.01.2017 20:45;5;;;;;
06.01.2017 21:00;5;;;;;
06.01.2017 21:15;5;;;;;
06.01.2017 21:30;7;;;;;
06.01.2017 21:45;8;;;;;
06.01.2017 22:00;7;;;;;
06.01.2017 22:15;7;;;;;
06.01.2017 22:30;9;;;;;
06.01.2017 22:45;9;;;;;
06.01.2017 23:00;9;;;;;
06.01.2017 23:15;9;;;;;
06.01.2017 23:30;9;;;;;
06.01.2017 23:45;9;;;;;
07.01.2017 00:00;9;;;;;
07.01.2017 00:15;9;;;;;
07.01.2017 00:30;9;;;;;
07.01.2017 00:45;9;;;;;
07.01.2017 01:00;9;;;;;
07.01.2017 01:15;9;;;;;
07.01.2017 01:30;10;;;;;
07.01.2017 01:45;9;;;;;
07.01.2017 02:00;10;;;;;
07.01.2017 02:15;10;;;;;
07.01.2017 02:30;10;;;;;
07.01.2017 02:45;10;;;;;
07.01.2017 03:00;9;;;;;
07.01.2017 03:15;10;;;;;
07.01.2017 03:30;10;;;;;
07.01.2017 03:45;10;;;;;
07.01.2017 04:00;10;;;;;
07.01.2017 04:15;10;;;;;
07.01.2017 04:30;10;;;;;
07.01.2017 04:45;10;;;;;
07.01.2017 05:00;9;;;;;
07.01.2017 05:15;10;;;;;
07.01.2017 05:30;10;;;;;
07.01.2017 05:45;10;;;;;
07.01.2017 06:00;10;;;;;
07.01.2017 06:15;10;;;;;
07.01.2017 06:30;10;;;;;
07.01.2017 06:45;10;;;;;
07.01.2017 07:00;9;;;;;
07.01.2017 07:15;9;;;;;
07.01.2017 07:30;9;;;;;
07.01.2017 07:45;9;;;;;
07.01.2017 08:00;9;;;;;
07.01.2017 08:15;8;;;;;
07.01.2017 08:30;11;;;;;
07.01.2017 08:45;21;;;;;
07.01.2017 09:00;44;;;;;
07.01.2017 09:15;62;;;;;
07.01.2017 09:30;59;;;;;
07.01.2017 09:45;90;;;;;
07.01.2017 10:00;137;;;;;
07.01.2017 10:15;144;;;;;
07.01.2017 10:30;202;;;;;
07.01.2017 10:45;270;;;;;
07.01.2017 11:00;324;;;;;
07.01.2017 11:15;391;;;;;
07.01.2017 11:30;411;;;;;
07.01.2017 11:45;354;;;;;
07.01.2017 12:00;370;;;;;
07.01.2017 12:15;332;;;;;
07.01.2017 12:30;322;;;;;
07.01.2017 12:45;230;;;;;
07.01.2017 13:00;240;;;;;
07.01.2017 13:15;223;;;;;
07.01.2017 13:30;192;;;;;
07.01.2017 13:45;177;;;;;
07.01.2017 14:00;147;;;;;
07.01.2017 14:15;97;;;;;
07.01.2017 14:30;79;;;;;
07.01.2017 14:45;101;;;;;
07.01.2017 15:00;103;;;;;
07.01.2017 15:15;92;;;;;
07.01.2017 15:30;63;;;;;
07.01.2017 15:45;47;;;;;
07.01.2017 16:00;27;;;;;
07.01.2017 16:15;31;;;;;
07.01.2017 16:30;29;;;;;
07.01.2017 16:45;17;;;;;
07.01.2017 17:00;9;;;;;
07.01.2017 17:15;9;;;;;
07.01.2017 17:30;7;;;;;
07.01.2017 17:45;9;;;;;
07.01.2017 18:00;9;;;;;
07.01.2017 18:15;9;;;;;
07.01.2017 18:30;8;;;;;
07.01.2017 18:45;6;;;;;
07.01.2017 19:00;7;;;;;
07.01.2017 19:15;7;;;;;
07.01.2017 19:30;8;;;;;
07.01.2017 19:45;9;;;;;
07.01.2017 20:00;8;;;;;
07.01.2017 20:15;7;;;;;
07.01.2017 20:30;7;;;;;
07.01.2017 20:45;6;;;;;
07.01.2017 21:00;6;;;;;
07.01.2017 21:15;8;;;;;
07.01.2017 21:30;6;;;;;
07.01.2017 21:45;5;;;;;
07.01.2017 22:00;6;;;;;
07.01.2017 22:15;9;;;;;
07.01.2017 22:30;9;;;;;
07.01.2017 22:45;9;;;;;
07.01.2017 23:00;9;;;;;
07.01.2017 23:15;9;;;;;
07.01.2017 23:30;9;;;;;
07.01.2017 23:45;8;;;;;
08.01.2017 00:00;8;;;;;
08.01.2017 00:15;5;;;;;
08.01.2017 00:30;5;;;;;
08.01.2017 00:45;5;;;;;
08.01.2017 01:00;9;;;;;
08.01.2017 01:15;10;;;;;
08.01.2017 01:30;10;;;;;
08.01.2017 01:45;10;;;;;
08.01.2017 02:00;10;;;;;
08.01.2017 02:15;10;;;;;
08.01.2017 02:30;10;;;;;
08.01.2017 02:45;10;;;;;
08.01.2017 03:00;9;;;;;
08.01.2017 03:15;9;;;;;
08.01.2017 03:30;5;;;;;
08.01.2017 03:45;5;;;;;
08.01.2017 04:00;5;;;;;
08.01.2017 04:15;7;;;;;
08.01.2017 04:30;10;;;;;
08.01.2017 04:45;10;;;;;
08.01.2017 05:00;10;;;;;
08.01.2017 05:15;10;;;;;
08.01.2017 05:30;10;;;;;
08.01.2017 05:45;10;;;;;
08.01.2017 06:00;10;;;;;
08.01.2017 06:15;10;;;;;
08.01.2017 06:30;10;;;;;
08.01.2017 06:45;10;;;;;
08.01.2017 07:00;10;;;;;
08.01.2017 07:15;10;;;;;
08.01.2017 07:30;10;;;;;
08.01.2017 07:45;9;;;;;
08.01.2017 08:00;9;;;;;
08.01.2017 08:15;8;;;;;
08.01.2017 08:30;30;;;;;
08.01.2017 08:45;30;;;;;
08.01.2017 09:00;38;;;;;
08.01.2017 09:15;33;;;;;
08.01.2017 09:30;43;;;;;
08.01.2017 09:45;61;;;;;
08.01.2017 10:00;76;;;;;
08.01.2017 10:15;77;;;;;
08.01.2017 10:30;84;;;;;
08.01.2017 10:45;77;;;;;
08.01.2017 11:00;69;;;;;
08.01.2017 11:15;74;;;;;
08.01.2017 11:30;83;;;;;
08.01.2017 11:45;92;;;;;
08.01.2017 12:00;102;;;;;
08.01.2017 12:15;117;;;;;
08.01.2017 12:30;119;;;;;
08.01.2017 12:45;133;;;;;
08.01.2017 13:00;155;;;;;
08.01.2017 13:15;169;;;;;
08.01.2017 13:30;197;;;;;
08.01.2017 13:45;268;;;;;
08.01.2017 14:00;210;;;;;
08.01.2017 14:15;157;;;;;
08.01.2017 14:30;141;;;;;
08.01.2017 14:45;131;;;;;
08.01.2017 15:00;120;;;;;
08.01.2017 15:15;106;;;;;
08.01.2017 15:30;91;;;;;
08.01.2017 15:45;64;;;;;
08.01.2017 16:00;42;;;;;
08.01.2017 16:15;34;;;;;
08.01.2017 16:30;27;;;;;
08.01.2017 16:45;9;;;;;
08.01.2017 17:00;9;;;;;
08.01.2017 17:15;9;;;;;
08.01.2017 17:30;9;;;;;
08.01.2017 17:45;9;;;;;
08.01.2017 18:00;8;;;;;
08.01.2017 18:15;7;;;;;
08.01.2017 18:30;9;;;;;
08.01.2017 18:45;9;;;;;
08.01.2017 19:00;9;;;;;
08.01.2017 19:15;6;;;;;
08.01.2017 19:30;8;;;;;
08.01.2017 19:45;9;;;;;
08.01.2017 20:00;8;;;;;
08.01.2017 20:15;7;;;;;
08.01.2017 20:30;7;;;;;
08.01.2017 20:45;5;;;;;
08.01.2017 21:00;5;;;;;
08.01.2017 21:15;5;;;;;
08.01.2017 21:30;5;;;;;
08.01.2017 21:45;5;;;;;
08.01.2017 22:00;7;;;;;
08.01.2017 22:15;9;;;;;
08.01.2017 22:30;9;;;;;
08.01.2017 22:45;9;;;;;
08.01.2017 23:00;9;;;;;
08.01.2017 23:15;9;;;;;
08.01.2017 23:30;9;;;;;
08.01.2017 23:45;9;;;;;
09.01.2017 00:00;9;;;;;
09.01.2017 00:15;6;;;;;
09.01.2017 00:30;5;;;;;
09.01.2017 00:45;5;;;;;
09.01.2017 01:00;5;;;;;
09.01.2017 01:15;5;;;;;
09.01.2017 01:30;9;;;;;
09.01.2017 01:45;10;;;;;
09.01.2017 02:00;10;;;;;
09.01.2017 02:15;10;;;;;
09.01.2017 02:30;10;;;;;
09.01.2017 02:45;10;;;;;
09.01.2017 03:00;9;;;;;
09.01.2017 03:15;10;;;;;
09.01.2017 03:30;8;;;;;
09.01.2017 03:45;5;;;;;
09.01.2017 04:00;5;;;;;
09.01.2017 04:15;5;;;;;
09.01.2017 04:30;8;;;;;
09.01.2017 04:45;10;;;;;
09.01.2017 05:00;10;;;;;
09.01.2017 05:15;10;;;;;
09.01.2017 05:30;8;;;;;
09.01.2017 05:45;9;;;;;
09.01.2017 06:00;9;;;;;
09.01.2017 06:15;9;;;;;
09.01.2017 06:30;9;;;;;
09.01.2017 06:45;9;;;;;
09.01.2017 07:00;9;;;;;
09.01.2017 07:15;9;;;;;
09.01.2017 07:30;9;;;;;
09.01.2017 07:45;9;;;;;
09.01.2017 08:00;8;;;;;
09.01.2017 08:15;6;;;;;
09.01.2017 08:30;7;;;;;
09.01.2017 08:45;8;;;;;
09.01.2017 09:00;14;;;;;
09.01.2017 09:15;26;;;;;
09.01.2017 09:30;27;;;;;
09.01.2017 09:45;32;;;;;
09.01.2017 10:00;40;;;;;
09.01.2017 10:15;45;;;;;
09.01.2017 10:30;54;;;;;
09.01.2017 10:45;53;;;;;
09.01.2017 11:00;62;;;;;
09.01.2017 11:15;79;;;;;
09.01.2017 11:30;93;;;;;
09.01.2017 11:45;106;;;;;
09.01.2017 12:00;119;;;;;
09.01.2017 12:15;123;;;;;
09.01.2017 12:30;136;;;;;
09.01.2017 12:45;148;;;;;
09.01.2017 13:00;154;;;;;
09.01.2017 13:15;153;;;;;
09.01.2017 13:30;155;;;;;
09.01.2017 13:45;170;;;;;
09.01.2017 14:00;160;;;;;
09.01.2017 14:15;143;;;;;
09.01.2017 14:30;130;;;;;
09.01.2017 14:45;119;;;;;
09.01.2017 15:00;101;;;;;
09.01.2017 15:15;83;;;;;
09.01.2017 15:30;59;;;;;
09.01.2017 15:45;37;;;;;
09.01.2017 16:00;28;;;;;
09.01.2017 16:15;13;;;;;
09.01.2017 16:30;8;;;;;
09.01.2017 16:45;8;;;;;
09.01.2017 17:00;8;;;;;
09.01.2017 17:15;8;;;;;
09.01.2017 17:30;8;;;;;
09.01.2017 17:45;8;;;;;
09.01.2017 18:00;8;;;;;
09.01.2017 18:15;8;;;;;
09.01.2017 18:30;8;;;;;
09.01.2017 18:45;8;;;;;
09.01.2017 19:00;8;;;;;
09.01.2017 19:15;9;;;;;
09.01.2017 19:30;9;;;;;
09.01.2017 19:45;9;;;;;
09.01.2017 20:00;9;;;;;
09.01.2017 20:15;9;;;;;
09.01.2017 20:30;6;;;;;
09.01.2017 20:45;5;;;;;
09.01.2017 21:00;5;;;;;
09.01.2017 21:15;5;;;;;
09.01.2017 21:30;5;;;;;
09.01.2017 21:45;5;;;;;
09.01.2017 22:00;6;;;;;
09.01.2017 22:15;9;;;;;
09.01.2017 22:30;9;;;;;
09.01.2017 22:45;9;;;;;
09.01.2017 23:00;9;;;;;
09.01.2017 23:15;9;;;;;
09.01.2017 23:30;9;;;;;
09.01.2017 23:45;9;;;;;
10.01.2017 00:00;7;;;;;
10.01.2017 00:15;5;;;;;
10.01.2017 00:30;5;;;;;
10.01.2017 00:45;6;;;;;
10.01.2017 01:00;9;;;;;
10.01.2017 01:15;10;;;;;
10.01.2017 01:30;10;;;;;
10.01.2017 01:45;10;;;;;
10.01.2017 02:00;9;;;;;
10.01.2017 02:15;10;;;;;
10.01.2017 02:30;10;;;;;
10.01.2017 02:45;10;;;;;
10.01.2017 03:00;9;;;;;
10.01.2017 03:15;9;;;;;
10.01.2017 03:30;9;;;;;
10.01.2017 03:45;9;;;;;
10.01.2017 04:00;6;;;;;
10.01.2017 04:15;5;;;;;
10.01.2017 04:30;8;;;;;
10.01.2017 04:45;10;;;;;
10.01.2017 05:00;9;;;;;
10.01.2017 05:15;9;;;;;
10.01.2017 05:30;9;;;;;
10.01.2017 05:45;9;;;;;
10.01.2017 06:00;9;;;;;
10.01.2017 06:15;9;;;;;
10.01.2017 06:30;9;;;;;
10.01.2017 06:45;9;;;;;
10.01.2017 07:00;8;;;;;
10.01.2017 07:15;9;;;;;
10.01.2017 07:30;9;;;;;
10.01.2017 07:45;9;;;;;
10.01.2017 08:00;9;;;;;
10.01.2017 08:15;7;;;;;
10.01.2017 08:30;14;;;;;
10.01.2017 08:45;26;;;;;
10.01.2017 09:00;62;;;;;
10.01.2017 09:15;100;;;;;
10.01.2017 09:30;147;;;;;
10.01.2017 09:45;195;;;;;
10.01.2017 10:00;237;;;;;
10.01.2017 10:15;294;;;;;
10.01.2017 10:30;437;;;;;
10.01.2017 10:45;425;;;;;
10.01.2017 11:00;258;;;;;
10.01.2017 11:15;489;;;;;
10.01.2017 11:30;934;;;;;
10.01.2017 11:45;971;;;;;
10.01.2017 12:00;1074;;;;;
10.01.2017 12:15;1158;;;;;
10.01.2017 12:30;1111;;;;;
10.01.2017 12:45;1253;;;;;
10.01.2017 13:00;1243;;;;;
10.01.2017 13:15;1144;;;;;
10.01.2017 13:30;1072;;;;;
10.01.2017 13:45;948;;;;;
10.01.2017 14:00;734;;;;;